"2010-12-27 00:00:00",458221,3.486,64.42,6.75,1.269,4.964,101.2706,2.541,3.54,38.63,0,109.8,13.45,3.30,26.4
"2010-12-27 00:00:30",458222,2.95,63.5,5.878,1.059,4.758,101.2559,2.504,3.531,38.66,0,109.8,13.45,3.26,25.5
"2010-12-27 00:01:00",458223,2.928,62.19,5.311,1.12,5.038,101.2545,2.5,3.494,38.65,0,109.8,13.46,3.26,24.2
"2010-12-27 00:01:30",458224,4.224,68.39,4.871,0.965,7.8,101.2542,2.5,3.645,38.85,0,109.8,13.46,3.26,30.4
"2010-12-27 00:02:00",458225,3.946,67.97,6.039,1.124,6.807,101.2551,2.502,3.61,38.9,0,109.8,13.46,3.26,30.0
"2010-12-27 00:02:30",458226,3.18,64.85,6.277,1.226,4.545,101.2548,2.501,3.351,38.75,0,109.8,13.46,3.26,26.8
"2010-12-27 00:03:00",458227,2.649,62.96,4.481,0.865,3.72,101.2367,2.455,3.45,38.98,0,109.8,13.46,3.22,25.0
"2010-12-27 00:03:30",458228,3.334,65.09,6.287,1.24,4.764,101.2212,2.415,3.362,38.99,0,109.8,13.46,3.18,27.1
"2010-12-27 00:04:00",458229,3.379,65.13,6.653,1.201,5.518,101.2212,2.415,3.491,39.25,0,109.8,13.46,3.18,27.1
"2010-12-27 00:04:30",458230,4.629,69.34,5.474,1.083,7.451,101.213,2.394,3.503,39.41,0,109.8,13.46,3.15,31.3
"2010-12-27 00:05:00",458231,4.523,68.75,6.11,1.162,7.073,101.1878,2.33,3.539,39.54,0,109.8,13.46,3.09,30.8
"2010-12-27 00:05:30",458232,3.702,64.09,6.604,1.245,5.52,101.1872,2.329,3.428,39.53,0,109.8,13.46,3.09,26.1
"2010-12-27 00:06:00",458233,3.209,62.36,5.892,1.073,4.589,101.187,2.328,3.34,39.45,0,109.8,13.45,3.09,24.4
"2010-12-27 00:06:30",458234,2.789,60.37,4.415,0.819,3.935,101.1872,2.329,3.318,39.31,0,109.8,13.45,3.09,22.4
"2010-12-27 00:07:00",458235,3.747,67.89,6.418,1.222,6.612,101.1872,2.329,3.401,39.29,0,109.8,13.46,3.09,29.9
"2010-12-27 00:07:30",458236,3.843,65.85,5.32,1.184,7.239,101.1887,2.332,3.461,39.18,0,109.7,13.46,3.09,27.8
"2010-12-27 00:08:00",458237,3.966,60.45,5.477,1.031,8.04,101.2186,2.409,3.55,38.93,0,109.7,13.46,3.17,22.5
"2010-12-27 00:08:30",458238,3.162,55.5,5.809,1.203,5.239,101.248,2.484,3.408,38.55,0,109.7,13.46,3.24,17.5
"2010-12-27 00:09:00",458239,2.57,55.79,4.536,0.783,3.978,101.2599,2.514,3.449,38.41,0,109.7,13.46,3.27,17.8
"2010-12-27 00:09:30",458240,3.275,57.73,6.947,1.187,4.758,101.2826,2.572,3.393,38.24,0,109.7,13.46,3.33,19.7
"2010-12-27 00:10:00",458241,3.811,55.77,7.142,1.236,6.783,101.303,2.624,3.632,38.52,0,109.7,13.46,3.39,17.8
"2010-12-27 00:10:30",458242,3.893,51.62,7.158,1.257,6.907,101.3333,2.701,3.566,38.24,0,109.8,13.47,3.46,13.6
"2010-12-27 00:11:00",458243,4.469,55.26,4.038,0.625,8.63,101.3568,2.761,3.812,39.08,0,109.7,13.47,3.52,17.3
"2010-12-27 00:11:30",458244,3.476,49.2,6.75,1.288,6.577,101.3772,2.813,3.717,38.49,0,109.7,13.47,3.58,11.2
"2010-12-27 00:12:00",458245,2.17,39.36,3.289,0.478,4.265,101.3818,2.825,3.65,38.54,0,109.7,13.51,3.59,1.4
"2010-12-27 00:12:30",458246,3.049,42.35,5.529,1.18,4.771,101.3889,2.843,3.665,37.98,0,109.7,13.47,3.61,4.3
"2010-12-27 00:13:00",458247,3.235,40.23,6.288,1.187,5.668,101.3909,2.848,3.729,39.05,0,109.7,13.47,3.61,2.2
"2010-12-27 00:13:30",458248,3.067,38.47,5.124,1.073,5.115,101.414,2.907,3.818,40.37,0,109.7,13.47,3.67,0.5
"2010-12-27 00:14:00",458249,4.391,44.68,5.757,1.128,7.642,101.42,2.923,3.947,40.15,0,109.7,13.47,3.68,6.7
"2010-12-27 00:14:30",458250,4.81,48.18,2.51,0.774,8.46,101.4229,2.93,3.988,39.93,0,109.7,13.47,3.69,10.2
"2010-12-27 00:15:00",458251,3.742,44.77,7.605,1.252,5.768,101.4246,2.934,3.812,38.73,0,109.7,13.47,3.70,6.8
"2010-12-27 00:15:30",458252,2.994,49.31,7.293,1.069,4.649,101.4246,2.934,3.864,37.64,0,109.7,13.47,3.70,11.3
"2010-12-27 00:16:00",458253,3.012,48.02,6.418,1.033,4.226,101.4173,2.916,3.798,37.56,0,109.7,13.47,3.68,10.0
"2010-12-27 00:16:30",458254,2.445,42.62,1.872,0.074,3.856,101.4093,2.895,3.707,38.05,0,109.7,13.51,3.66,4.6
"2010-12-27 00:17:00",458255,3.841,47.11,5.776,1.254,7.321,101.4187,2.919,3.979,39.09,0,109.6,13.48,3.68,9.1
"2010-12-27 00:17:30",458256,4.534,48.57,4.677,0.958,8.2,101.4252,2.936,4.012,39.77,0,109.7,13.48,3.70,10.6
"2010-12-27 00:18:00",458257,3.799,46.81,6.298,1.242,6.865,101.4252,2.936,3.936,39.7,0,109.7,13.48,3.70,8.8
"2010-12-27 00:18:30",458258,3.548,48.88,6.911,1.242,5.804,101.4252,2.936,3.878,39.03,0,109.7,13.48,3.70,10.9
"2010-12-27 00:19:00",458259,2.876,48.38,6.187,1.069,5.067,101.4252,2.936,3.909,38.51,0,109.7,13.48,3.70,10.4
"2010-12-27 00:19:30",458260,2.577,47.76,4.289,0.943,3.917,101.4252,2.936,3.753,37.46,0,109.7,13.48,3.70,9.8
"2010-12-27 00:20:00",458261,3.214,51.57,5.704,1.248,6.134,101.4252,2.936,3.947,37.84,0,109.7,13.49,3.70,13.6
"2010-12-27 00:20:30",458262,4.119,56.19,4.511,1.043,8.11,101.4252,2.936,3.998,37.98,0,109.7,13.49,3.70,18.2
"2010-12-27 00:21:00",458263,4.374,62.4,5.442,0.899,8.07,101.4164,2.913,3.984,37.24,0,109.7,13.48,3.68,24.4
"2010-12-27 00:21:30",458264,3.915,64.62,6.754,1.288,6.589,101.3912,2.849,3.987,36.95,0,109.7,13.48,3.61,26.6
"2010-12-27 00:22:00",458265,3.302,61.37,6.078,1.253,5.259,101.3799,2.82,3.824,36.85,0,109.7,13.48,3.58,23.4
"2010-12-27 00:22:30",458266,2.074,54.83,2.97,0.076,3.766,101.3587,2.766,3.786,36.8,0,109.7,13.51,3.53,16.8
"2010-12-27 00:23:00",458267,1.859,49.77,1.659,0.058,3.781,101.3576,2.763,3.774,36.95,0,109.7,13.51,3.53,11.8
"2010-12-27 00:23:30",458268,4.116,59.52,4.299,0.972,8.18,101.3585,2.765,3.834,37.28,0,109.7,13.48,3.53,21.5
"2010-12-27 00:24:00",458269,3.994,58.37,5.534,1.084,8.03,101.3599,2.769,3.974,37.91,0,109.7,13.48,3.53,20.4
"2010-12-27 00:24:30",458270,3.906,57.44,6.181,1.192,7.361,101.3709,2.797,3.924,38.26,0,109.7,13.48,3.56,19.4
"2010-12-27 00:25:00",458271,3.884,50.99,6.661,1.258,6.512,101.3842,2.831,3.891,39.12,0,109.7,13.48,3.59,13.0
"2010-12-27 00:25:30",458272,3.166,46.27,5.741,1.122,4.609,101.397,2.864,3.719,39.25,0,109.7,13.48,3.63,8.3
"2010-12-27 00:26:00",458273,2.55,43.62,2.358,0.061,3.806,101.4004,2.873,3.727,39.36,0,109.7,13.52,3.63,5.6
"2010-12-27 00:26:30",458274,4.302,52.09,5.847,1.18,6.483,101.4062,2.887,3.78,39.08,0,109.7,13.49,3.65,14.1
"2010-12-27 00:27:00",458275,4.755,56.15,3.855,0.961,8.76,101.4113,2.9,4.053,39.48,0,109.7,13.49,3.66,18.2
"2010-12-27 00:27:30",458276,4.366,52.98,5.808,1.127,7.529,101.4145,2.908,3.992,39.2,0,109.7,13.49,3.67,15.0
"2010-12-27 00:28:00",458277,4.318,52.71,6.071,1.165,6.867,101.415,2.91,3.927,38.75,0,109.7,13.49,3.67,14.7
"2010-12-27 00:28:30",458278,3.246,46.43,5.715,1.074,4.798,101.4168,2.914,3.872,38.98,0,109.7,13.49,3.68,8.4
"2010-12-27 00:29:00",458279,2.932,44.64,2.292,0.46,3.724,101.4173,2.916,3.755,39.31,0,109.7,13.49,3.68,6.6
"2010-12-27 00:29:30",458280,4.079,49.54,6.029,1.259,6.425,101.4191,2.92,3.955,40.01,0,109.7,13.49,3.68,11.5
"2010-12-27 00:30:00",458281,4.427,48.19,5.545,1.123,8.11,101.4341,2.958,4.065,40.36,0,109.7,13.49,3.72,10.2
"2010-12-27 00:30:30",458282,4.542,46.9,6.174,1.129,8.19,101.4556,3.013,4.082,40.45,0,109.7,13.5,3.78,8.9
"2010-12-27 00:31:00",458283,4.311,50.13,6.274,1.222,7.388,101.4559,3.014,4.07,40.14,0,109.7,13.49,3.78,12.1
"2010-12-27 00:31:30",458284,3.737,44.97,6.201,1.146,5.738,101.4582,3.02,4.025,39.58,0,109.7,13.49,3.78,7.0
"2010-12-27 00:32:00",458285,3.315,41.68,4.549,0.778,4.106,101.4596,3.024,3.82,39.3,0,109.7,13.49,3.79,3.7
"2010-12-27 00:32:30",458286,3.62,40.84,5.349,1.073,5.383,101.4593,3.023,3.988,39.75,0,109.7,13.5,3.79,2.8
"2010-12-27 00:33:00",458287,4.798,46.09,5.975,1.129,7.942,101.459,3.022,4.068,39.95,0,109.7,13.5,3.78,8.1
"2010-12-27 00:33:30",458288,4.647,44.64,5.889,1.035,8.35,101.4596,3.024,4.133,40.09,0,109.7,13.5,3.79,6.6
"2010-12-27 00:34:00",458289,4.582,44.35,5.46,0.994,7.85,101.4605,3.026,4.078,40.02,0,109.7,13.5,3.79,6.3
"2010-12-27 00:34:30",458290,3.383,38.17,6.795,1.259,5.711,101.4732,3.058,3.978,39.87,0,109.7,13.5,3.82,0.2
"2010-12-27 00:35:00",458291,2.043,32.18,1.398,0.106,3.694,101.489,3.099,3.894,39.68,0,109.7,13.53,3.86,354.2
"2010-12-27 00:35:30",458292,2.17,32.75,4.14,0.579,4.277,101.4935,3.11,3.957,39.71,0,109.6,13.5,3.87,354.8
"2010-12-27 00:36:00",458293,4.238,41.73,6.469,1.023,7.693,101.4935,3.11,4.154,39.95,0,109.6,13.5,3.87,3.7
"2010-12-27 00:36:30",458294,4.031,39.93,6.42,1.112,7.675,101.4935,3.11,4.146,40.02,0,109.7,13.5,3.87,1.9
"2010-12-27 00:37:00",458295,4.142,39.55,6.537,1.094,7.848,101.4935,3.11,4.123,39.96,0,109.7,13.5,3.87,1.5
"2010-12-27 00:37:30",458296,3.462,35.85,6.184,1.257,6.455,101.4935,3.11,4.123,39.84,0,109.7,13.49,3.87,357.9
"2010-12-27 00:38:00",458297,2.16,28.42,1.544,0.128,3.745,101.4941,3.112,3.943,39.56,0,109.7,13.53,3.87,350.4
"2010-12-27 00:38:30",458298,2.294,28.47,2.851,0.688,3.739,101.5012,3.13,3.964,39.57,0,109.7,13.49,3.89,350.5
"2010-12-27 00:39:00",458299,2.697,29.57,5.347,1.003,5.477,101.5122,3.158,4.085,39.78,0,109.7,13.49,3.92,351.6
"2010-12-27 00:39:30",458300,3.969,36.01,6.594,1.251,7.319,101.5131,3.16,4.236,39.85,0,109.7,13.5,3.92,358.0
"2010-12-27 00:40:00",458301,4.629,41.86,4.917,0.98,8.03,101.5088,3.149,4.208,39.68,0,109.7,13.5,3.91,3.9
"2010-12-27 00:40:30",458302,4.232,40.1,5.929,1.257,7.241,101.5032,3.135,4.221,39.64,0,109.7,13.5,3.90,2.1
"2010-12-27 00:41:00",458303,3.971,34.28,7.277,1.255,5.681,101.4989,3.124,4.137,39.64,0,109.7,13.49,3.89,356.3
"2010-12-27 00:41:30",458304,2.881,28.98,0.775,0.086,3.922,101.5102,3.153,3.985,39.52,0,109.7,13.53,3.92,351.0
"2010-12-27 00:42:00",458305,4.216,36.98,6.937,1.395,6.664,101.5258,3.193,4.156,39.64,0,109.7,13.5,3.96,359.0
"2010-12-27 00:42:30",458306,3.852,37.4,6.511,1.265,6.898,101.5275,3.197,4.222,39.37,0,109.7,13.5,3.96,359.4
"2010-12-27 00:43:00",458307,3.435,35.02,6.122,1.187,6.472,101.5275,3.197,4.21,39.44,0,109.7,13.5,3.96,357.0
"2010-12-27 00:43:30",458308,3.681,33.92,6.309,1.22,7.321,101.5275,3.197,4.29,39.54,0,109.7,13.51,3.96,355.9
"2010-12-27 00:44:00",458309,3.301,30.65,7.32,1.101,5.648,101.5275,3.197,4.136,39.45,0,109.7,13.51,3.96,352.6
"2010-12-27 00:44:30",458310,2.521,27.23,2.166,0.136,3.795,101.5249,3.19,4.035,39.32,0,109.7,13.54,3.95,349.2
"2010-12-27 00:45:00",458311,3.927,34.81,6.491,1.356,5.784,101.5142,3.163,4.165,39.48,0,109.7,13.51,3.93,356.8
"2010-12-27 00:45:30",458312,4.155,37.81,7.105,1.187,6.517,101.5128,3.159,4.165,39.43,0,109.7,13.51,3.92,359.8
"2010-12-27 00:46:00",458313,3.825,37.06,6.219,1.105,7.683,101.5249,3.19,4.289,39.34,0,109.7,13.51,3.95,359.1
"2010-12-27 00:46:30",458314,4.076,39,5.734,1.124,7.682,101.5275,3.197,4.282,39.39,0,109.7,13.51,3.96,1.0
"2010-12-27 00:47:00",458315,3.559,34.03,6.881,1.247,6.35,101.5275,3.197,4.163,39.18,0,109.7,13.51,3.96,356.0
"2010-12-27 00:47:30",458316,2.247,27.05,1.352,0.091,3.853,101.5278,3.198,4.084,39.16,0,109.7,13.54,3.96,349.0
"2010-12-27 00:48:00",458317,3.245,31.95,6.56,1.219,5.527,101.5275,3.197,4.202,39.27,0,109.7,13.51,3.96,354.0
"2010-12-27 00:48:30",458318,3.024,31.91,5.817,1.153,5.158,101.5278,3.198,4.177,39.28,0,109.7,13.51,3.96,353.9
"2010-12-27 00:49:00",458319,4.793,37.83,6.306,1.22,7.491,101.5269,3.196,4.276,39.25,0,109.7,13.51,3.96,359.8
"2010-12-27 00:49:30",458320,5.613,39.74,3.673,0.72,9.16,101.5278,3.198,4.34,36.79,0,109.7,13.51,3.96,1.7
"2010-12-27 00:50:00",458321,4.259,33.96,6.771,1.338,7.35,101.5583,3.276,4.283,34.37,0,109.7,13.51,4.04,356.0
"2010-12-27 00:50:30",458322,3.798,30.01,6.116,1.194,6.453,101.5929,3.364,4.318,33.45,0,109.7,13.51,4.13,352.0
"2010-12-27 00:51:00",458323,4.013,29.03,5.956,1.197,6.038,101.6158,3.422,4.344,33.78,0,109.7,13.51,4.19,351.0
"2010-12-27 00:51:30",458324,3.786,32.41,7.584,1.141,5.707,101.611,3.41,4.354,37.24,0,109.7,13.51,4.17,354.4
"2010-12-27 00:52:00",458325,3.938,36.2,6.799,1.304,5.843,101.5901,3.357,4.335,38.3,0,109.7,13.51,4.12,358.2
"2010-12-27 00:52:30",458326,5.578,44.39,5.302,0.77,8.58,101.5621,3.285,4.466,38.74,0,109.7,13.51,4.05,6.4
"2010-12-27 00:53:00",458327,5.259,43.23,5.961,1.05,8.18,101.5352,3.217,4.351,38.9,0,109.7,13.51,3.98,5.2
"2010-12-27 00:53:30",458328,4.086,38.29,6.008,1.151,5.646,101.5327,3.21,4.295,39.01,0,109.7,13.51,3.97,0.3
"2010-12-27 00:54:00",458329,5.197,44.65,5.972,1.204,7.053,101.5233,3.186,4.254,38.88,0,109.7,13.51,3.95,6.7
"2010-12-27 00:54:30",458330,3.167,34.52,4.194,0.772,5.176,101.5304,3.204,4.214,36.87,0,109.7,13.51,3.97,356.5
"2010-12-27 00:55:00",458331,4.165,40.73,6.851,1.264,6.459,101.5341,3.214,4.159,36.42,0,109.7,13.51,3.98,2.7
"2010-12-27 00:55:30",458332,5.009,48.31,5.132,1.189,7.541,101.5361,3.219,4.338,38.41,0,109.7,13.51,3.98,10.3
"2010-12-27 00:56:00",458333,5.521,53.86,4.504,0.871,8.23,101.5291,3.201,4.304,37.94,0,109.7,13.51,3.96,15.9
"2010-12-27 00:56:30",458334,3.923,46.32,5.262,1.149,5.871,101.5019,3.132,4.175,38.11,0,109.6,13.51,3.89,8.3
"2010-12-27 00:57:00",458335,4.098,44.85,6.623,1.235,6.033,101.4948,3.114,4.119,38.59,0,109.7,13.51,3.88,6.8
"2010-12-27 00:57:30",458336,3.762,41.49,6.09,1.143,5.433,101.4764,3.067,4.121,38.79,0,109.7,13.51,3.83,3.5
"2010-12-27 00:58:00",458337,4.304,43.34,6.573,1.244,6.385,101.4722,3.056,4.141,38.91,0,109.7,13.51,3.82,5.3
"2010-12-27 00:58:30",458338,4.393,46.14,6.75,1.249,6.798,101.4742,3.061,4.17,39.23,0,109.7,13.51,3.82,8.1
"2010-12-27 00:59:00",458339,4.898,52.18,4.391,1.065,8.42,101.4918,3.106,4.204,39.23,0,109.7,13.51,3.87,14.2
"2010-12-27 00:59:30",458340,4.722,50.87,6.685,1.217,7.516,101.5073,3.146,4.213,39.17,0,109.7,13.52,3.91,12.9
"2010-12-27 01:00:00",458341,4.458,51.02,6.201,1.244,6.173,101.5014,3.13,4.095,38.69,0,109.7,13.52,3.89,13.0
"2010-12-27 01:00:30",458342,3.312,47.39,0.496,0.028,4.069,101.4748,3.062,4.055,38.04,0,109.7,13.55,3.83,9.4
"2010-12-27 01:01:00",458343,4.719,53.6,6.329,1.289,6.475,101.4742,3.061,4.067,37.93,0,109.7,13.52,3.82,15.6
"2010-12-27 01:01:30",458344,4.767,52.84,6.668,1.277,7.141,101.4618,3.029,4.144,37.92,0,109.7,13.52,3.79,14.8
"2010-12-27 01:02:00",458345,5.373,56.35,5.129,1.016,8.35,101.4446,2.985,4.128,38.12,0,109.7,13.52,3.75,18.3
"2010-12-27 01:02:30",458346,5.287,55.46,5.346,1.073,7.984,101.4449,2.986,4.135,38.13,0,109.7,13.52,3.75,17.5
"2010-12-27 01:03:00",458347,4.622,49.4,6.191,1.259,6.532,101.4423,2.979,4.059,38.36,0,109.7,13.52,3.74,11.4
"2010-12-27 01:03:30",458348,4.494,49.06,6.291,1.255,5.669,101.4423,2.979,3.988,38.2,0,109.7,13.52,3.74,11.1
"2010-12-27 01:04:00",458349,4.018,47.64,5.633,1.049,5.146,101.4435,2.982,3.971,38.21,0,109.7,13.52,3.75,9.6
"2010-12-27 01:04:30",458350,4.791,52.15,6.113,1.181,7.269,101.446,2.989,4.126,38.29,0,109.7,13.52,3.75,14.2
"2010-12-27 01:05:00",458351,5.042,56.03,6.378,1.143,7.739,101.4472,2.992,4.089,38.15,0,109.7,13.52,3.75,18.0
"2010-12-27 01:05:30",458352,5.162,59.22,6.276,1.057,8.1,101.4457,2.988,4.098,38.48,0,109.7,13.52,3.75,21.2
"2010-12-27 01:06:00",458353,4.465,57.04,6.282,1.234,6.367,101.4463,2.99,4.02,38.72,0,109.7,13.52,3.75,19.0
"2010-12-27 01:06:30",458354,3.325,50.6,3.248,0.751,3.789,101.4472,2.992,3.848,38.64,0,109.7,13.52,3.75,12.6
"2010-12-27 01:07:00",458355,4.331,55.73,6.483,1.314,5.977,101.4489,2.996,4.012,38.67,0,109.7,13.52,3.76,17.7
"2010-12-27 01:07:30",458356,4.927,60.15,6.5,1.152,7.631,101.4387,2.97,4.054,38.62,0,109.7,13.52,3.73,22.2
"2010-12-27 01:08:00",458357,4.89,60.97,5.205,1.191,7.611,101.4189,2.92,4.001,37.93,0,109.7,13.52,3.68,23.0
"2010-12-27 01:08:30",458358,5,59.37,5.348,1.113,7.764,101.4147,2.909,4.029,38.95,0,109.7,13.52,3.67,21.4
"2010-12-27 01:09:00",458359,4.518,58.86,6.147,1.236,6.9,101.4161,2.913,3.996,38.89,0,109.7,13.52,3.67,20.9
"2010-12-27 01:09:30",458360,3.083,51.4,0.623,0.017,3.654,101.4124,2.903,3.808,38.63,0,109.7,13.54,3.67,13.4
"2010-12-27 01:10:00",458361,4.131,58.42,6.403,1.246,5.468,101.3892,2.844,3.868,37.81,0,109.7,13.52,3.61,20.4
"2010-12-27 01:10:30",458362,4.838,60.48,6.546,1.177,7.156,101.3839,2.83,3.915,37.12,0,109.7,13.52,3.59,22.5
"2010-12-27 01:11:00",458363,5.001,56.59,6.04,1.202,6.926,101.3822,2.826,3.85,37.55,0,109.7,13.52,3.59,18.6
"2010-12-27 01:11:30",458364,5.456,56.38,5.084,0.941,8.07,101.37,2.795,3.916,38.16,0,109.7,13.52,3.56,18.4
"2010-12-27 01:12:00",458365,4.975,54.09,6.18,1.217,6.883,101.3692,2.793,3.917,38.25,0,109.7,13.52,3.55,16.1
"2010-12-27 01:12:30",458366,4.674,53.67,6.383,1.26,5.377,101.3799,2.82,3.693,35.69,0,109.7,13.51,3.58,15.7
"2010-12-27 01:13:00",458367,4.628,55.29,6.53,1.18,6.606,101.3833,2.829,3.89,35.57,0,109.7,13.51,3.59,17.3
"2010-12-27 01:13:30",458368,5.296,59.26,5.204,1.115,7.764,101.385,2.833,3.844,34.71,0,109.7,13.52,3.60,21.3
"2010-12-27 01:14:00",458369,4.96,56.81,5.957,1.137,7.305,101.3935,2.855,3.859,35.66,0,109.7,13.52,3.62,18.8
"2010-12-27 01:14:30",458370,5.001,57.46,5.974,1.106,7.512,101.3924,2.852,3.957,36.13,0,109.7,13.52,3.61,19.5
"2010-12-27 01:15:00",458371,4.401,56.32,6.253,1.214,6.538,101.3918,2.851,3.939,35.96,0,109.7,13.52,3.61,18.3
"2010-12-27 01:15:30",458372,4.536,55.47,6.6,1.26,5.845,101.3864,2.837,3.85,34.82,0,109.7,13.52,3.60,17.5
"2010-12-27 01:16:00",458373,4.209,51.8,5.546,1.128,5.235,101.393,2.854,3.817,33.65,0,109.7,13.52,3.62,13.8
"2010-12-27 01:16:30",458374,4.716,53.91,6.21,1.227,6.322,101.4127,2.904,3.929,34.45,0,109.7,13.52,3.67,15.9
"2010-12-27 01:17:00",458375,5.429,58.73,5.876,1.071,8.18,101.4198,2.922,4.072,35.19,0,109.7,13.52,3.68,20.7
"2010-12-27 01:17:30",458376,5.434,57.97,5.826,1.154,7.896,101.4289,2.945,4.005,35.31,0,109.7,13.52,3.71,20.0
"2010-12-27 01:18:00",458377,5.425,54.61,5.978,1.203,7.187,101.4447,2.986,3.967,35.55,0,109.7,13.52,3.75,16.6
"2010-12-27 01:18:30",458378,4.523,47.11,5.657,1.165,5.203,101.4535,3.008,3.854,33.97,0,109.7,13.52,3.77,9.1
"2010-12-27 01:19:00",458379,5.213,51.94,6.207,1.196,7.429,101.4535,3.008,4.052,33.77,0,109.7,13.52,3.77,13.9
"2010-12-27 01:19:30",458380,5.394,52.05,5.725,1.151,7.817,101.4535,3.008,4.104,33.89,0,109.7,13.52,3.77,14.0
"2010-12-27 01:20:00",458381,5.428,50.55,6.046,1.128,7.911,101.4529,3.007,4.073,33.46,0,109.7,13.52,3.77,12.5
"2010-12-27 01:20:30",458382,5.399,49.98,6.146,1.162,7.42,101.4529,3.007,4.058,32.99,0,109.7,13.52,3.77,12.0
"2010-12-27 01:21:00",458383,4.327,47.58,6.564,1.089,5.855,101.4526,3.006,4.083,32.66,0,109.7,13.52,3.77,9.6
"2010-12-27 01:21:30",458384,4.845,54.01,6.727,1.23,6.531,101.4458,2.989,3.985,32.14,0,109.7,13.52,3.75,16.0
"2010-12-27 01:22:00",458385,4.536,55.19,7.06,1.258,5.759,101.4297,2.947,3.974,31.92,0,109.7,13.52,3.71,17.2
"2010-12-27 01:22:30",458386,5.433,61.56,6.137,1.192,7.092,101.419,2.92,3.953,31.9,0,109.7,13.53,3.68,23.6
"2010-12-27 01:23:00",458387,5.65,64.88,5.796,1.056,7.71,101.4034,2.88,4.061,30.99,0,109.7,13.53,3.64,26.9
"2010-12-27 01:23:30",458388,5.422,65.69,6.248,1.217,7.404,101.3856,2.835,3.983,28.73,0,109.7,13.53,3.60,27.7
"2010-12-27 01:24:00",458389,5.383,65.47,6.347,1.247,5.839,101.3853,2.834,3.793,28.41,0,109.7,13.52,3.60,27.5
"2010-12-27 01:24:30",458390,5.516,68.52,5.692,1.223,6.69,101.3717,2.799,3.86,28.7,0,109.7,13.53,3.56,30.5
"2010-12-27 01:25:00",458391,4.951,66.54,6.357,1.236,5.553,101.3522,2.75,3.812,29.1,0,109.7,13.53,3.51,28.5
"2010-12-27 01:25:30",458392,5.682,69.05,5.317,1.077,7.49,101.3522,2.75,3.843,28.77,0,109.7,13.53,3.51,31.1
"2010-12-27 01:26:00",458393,5.746,72.91,4.959,0.999,7.727,101.3397,2.718,3.875,29.92,0,109.7,13.53,3.48,34.9
"2010-12-27 01:26:30",458394,4.981,64.99,6.256,1.134,5.649,101.3217,2.672,3.792,30.06,0,109.7,13.52,3.43,27.0
"2010-12-27 01:27:00",458395,6.116,69.24,5.991,1.056,7.211,101.3183,2.663,3.737,29.79,0,109.6,13.52,3.42,31.2
"2010-12-27 01:27:30",458396,6.074,65.98,6.261,1.176,6.065,101.3186,2.664,3.635,29.68,0,109.7,13.52,3.43,28.0
"2010-12-27 01:28:00",458397,6.556,68.91,5.746,1.102,7.614,101.3168,2.659,3.766,30.28,0,109.7,13.52,3.42,30.9
"2010-12-27 01:28:30",458398,6.418,68.35,5.938,1.184,7.493,101.3149,2.654,3.765,30.47,0,109.7,13.52,3.42,30.3
"2010-12-27 01:29:00",458399,6.457,70.91,5.955,1.098,7.317,101.3109,2.644,3.75,30.46,0,109.7,13.52,3.41,32.9
"2010-12-27 01:29:30",458400,4.837,64.13,4.588,0.762,4.907,101.3101,2.642,3.671,30.28,0,109.7,13.52,3.40,26.1
"2010-12-27 01:30:00",458401,6.331,74.21,5.407,1.115,7.214,101.3126,2.648,3.662,30.21,0,109.7,13.52,3.41,36.2
"2010-12-27 01:30:30",458402,5.722,73.49,6.501,1.266,5.914,101.3061,2.632,3.65,31.33,0,109.7,13.52,3.39,35.5
"2010-12-27 01:31:00",458403,6.631,75.01,5.388,1.093,7.695,101.2905,2.592,3.775,31.97,0,109.7,13.52,3.35,37.0
"2010-12-27 01:31:30",458404,6.332,72.59,6.124,1.103,7.029,101.2854,2.579,3.708,32.34,0,109.7,13.52,3.34,34.6
"2010-12-27 01:32:00",458405,6.697,75.76,4.585,1.002,7.757,101.2772,2.558,3.73,33.27,0,109.7,13.53,3.32,37.8
"2010-12-27 01:32:30",458406,5.454,65.68,5.625,1.054,4.771,101.2569,2.506,3.472,32.75,0,109.7,13.53,3.27,27.7
"2010-12-27 01:33:00",458407,6.549,72.81,5.61,1.059,7.446,101.2523,2.495,3.623,32.79,0,109.7,13.53,3.26,34.8
"2010-12-27 01:33:30",458408,6.205,74.84,6.607,1.105,6.503,101.2532,2.497,3.528,32.6,0,109.7,13.53,3.26,36.8
"2010-12-27 01:34:00",458409,5.738,73.19,6.642,1.216,6.365,101.2532,2.497,3.645,32.59,0,109.7,13.53,3.26,35.2
"2010-12-27 01:34:30",458410,6.127,75.6,5.718,1.099,7.534,101.2557,2.503,3.65,32.26,0,109.7,13.53,3.26,37.6
"2010-12-27 01:35:00",458411,5.958,75.81,5.874,1.214,7.314,101.2665,2.531,3.597,32.25,0,109.7,13.53,3.29,37.8
"2010-12-27 01:35:30",458412,4.751,68.29,4.728,1.036,4.814,101.2773,2.558,3.502,32.19,0,109.7,13.53,3.32,30.3
"2010-12-27 01:36:00",458413,5.184,76.23,6.24,1.293,6.081,101.273,2.547,3.601,32.69,0,109.7,13.53,3.31,38.2
"2010-12-27 01:36:30",458414,5.08,77.67,6.597,1.213,6.6,101.2611,2.517,3.578,32.87,0,109.7,13.53,3.28,39.7
"2010-12-27 01:37:00",458415,4.573,77.09,6.455,1.204,6.463,101.2549,2.501,3.631,33.03,0,109.7,13.53,3.26,39.1
"2010-12-27 01:37:30",458416,5.057,82,6.301,1.145,7.124,101.2549,2.501,3.559,32.59,0,109.7,13.53,3.26,44.0
"2010-12-27 01:38:00",458417,4.483,83,6.159,1.251,6.652,101.2555,2.503,3.609,32.66,0,109.7,13.53,3.26,45.0
"2010-12-27 01:38:30",458418,4.836,79.98,6.776,1.148,5.949,101.2332,2.446,3.457,33.31,0,109.7,13.53,3.21,42.0
"2010-12-27 01:39:00",458419,5.081,78.16,6.187,1.181,5.879,101.2122,2.392,3.432,34.03,0,109.7,13.53,3.15,40.2
"2010-12-27 01:39:30",458420,4.154,77.54,7.279,1.133,5.148,101.187,2.328,3.414,33.93,0,109.7,13.53,3.09,39.5
"2010-12-27 01:40:00",458421,4.197,82,6.115,1.241,5.894,101.1786,2.306,3.429,33.46,0,109.7,13.53,3.07,44.0
"2010-12-27 01:40:30",458422,4.42,83.7,5.888,1.306,6.168,101.1616,2.263,3.435,33.43,0,109.7,13.53,3.02,45.7
"2010-12-27 01:41:00",458423,4.418,87.5,5.783,1.231,6.885,101.1525,2.24,3.416,33.36,0,109.7,13.53,3.00,49.5
"2010-12-27 01:41:30",458424,3.883,85.9,6.215,1.217,5.376,101.1536,2.243,3.314,33.14,0,109.7,13.53,3.00,47.9
"2010-12-27 01:42:00",458425,3.583,85.4,5.362,1.084,4.404,101.1545,2.245,3.266,33.23,0,109.7,13.53,3.00,47.4
"2010-12-27 01:42:30",458426,4.424,89.8,6.629,1.219,6.562,101.1545,2.245,3.279,33.14,0,109.7,13.53,3.00,51.8
"2010-12-27 01:43:00",458427,4.067,88.2,6.69,1.269,6.159,101.1545,2.245,3.361,33.25,0,109.7,13.53,3.00,50.2
"2010-12-27 01:43:30",458428,4.311,90.3,5.853,1.226,6.892,101.1545,2.245,3.347,33.37,0,109.7,13.53,3.00,52.3
"2010-12-27 01:44:00",458429,4.813,91.3,5.774,1.028,6.859,101.1542,2.244,3.361,33.49,0,109.6,13.53,3.00,53.3
"2010-12-27 01:44:30",458430,4.179,88.9,6.945,1.236,5.53,101.1409,2.21,3.266,33.51,0,109.7,13.53,2.97,50.9
"2010-12-27 01:45:00",458431,4.649,91.1,6.312,1.285,5.645,101.1245,2.168,3.223,33.52,0,109.7,13.53,2.93,53.1
"2010-12-27 01:45:30",458432,3.576,88.6,5.919,1.027,4.536,101.1205,2.158,3.237,33.6,0,109.6,13.53,2.92,50.6
"2010-12-27 01:46:00",458433,4.86,95.1,5.424,1.104,6.827,101.1205,2.158,3.212,33.67,0,109.7,13.53,2.92,57.1
"2010-12-27 01:46:30",458434,4.934,92.3,5.374,1.01,7.37,101.1203,2.158,3.253,33.9,0,109.6,13.53,2.92,54.3
"2010-12-27 01:47:00",458435,4.261,87.6,6.114,1.276,5.884,101.1036,2.115,3.218,34.1,0,109.7,13.53,2.87,49.6
"2010-12-27 01:47:30",458436,3.761,81,6.552,1.078,4.265,101.0914,2.084,3.103,34.23,0,109.7,13.53,2.84,43.0
"2010-12-27 01:48:00",458437,3.666,76.49,5.154,1.002,3.272,101.0866,2.072,3.055,34.47,0,109.7,13.53,2.83,38.5
"2010-12-27 01:48:30",458438,4.511,80.5,6.269,1.203,5.37,101.0724,2.036,3.069,34.79,0,109.7,13.54,2.79,42.5
"2010-12-27 01:49:00",458439,3.876,79.55,5.811,1.3,5.449,101.0529,1.986,3.072,35.04,0,109.7,13.54,2.74,41.6
"2010-12-27 01:49:30",458440,3.742,84.1,7.598,1.27,6.262,101.0526,1.985,3.155,34.95,0,109.7,13.54,2.74,46.1